Time,TemperatureF,DewpointF,PressureIn,WindDirection,WindDirectionDegrees,WindSpeedMPH,WindSpeedGustMPH,Humidity,HourlyPrecipIn,Conditions,Clouds,dailyrainin,SoftwareType,DateUTC
2013-05-26 07:39:00,49.7,39.6,30.08,West,267,2.0,2.0,68,0.00,,,0.00,Wunderground v.1.15,2013-05-26 11:39:00,
2013-05-26 07:45:00,50.2,39.7,30.08,SW,232,1.0,2.0,67,0.00,,,0.00,Wunderground v.1.15,2013-05-26 11:45:00,
2013-05-26 07:54:00,50.8,39.8,30.08,West,267,1.0,1.0,66,0.00,,,0.00,Wunderground v.1.15,2013-05-26 11:54:00,
2013-05-26 08:00:00,51.2,39.8,30.08,WSW,244,2.0,2.0,65,0.00,,,0.00,Wunderground v.1.15,2013-05-26 12:00:00,
2013-05-26 08:09:00,51.9,39.3,30.08,WSW,248,2.0,2.0,62,0.00,,,0.00,Wunderground v.1.15,2013-05-26 12:09:00,
2013-05-26 08:15:00,52.1,39.5,30.08,West,279,2.0,2.0,62,0.00,,,0.00,Wunderground v.1.15,2013-05-26 12:15:00,
2013-05-26 08:24:00,52.9,40.2,30.08,NW,309,1.0,3.0,62,0.00,,,0.00,Wunderground v.1.15,2013-05-26 12:24:00,
2013-05-26 08:30:00,53.0,39.5,30.08,West,277,2.0,2.0,60,0.00,,,0.00,Wunderground v.1.15,2013-05-26 12:30:00,
2013-05-26 08:39:00,53.9,41.2,30.08,SW,223,1.0,2.0,62,0.00,,,0.00,Wunderground v.1.15,2013-05-26 12:39:00,
2013-05-26 08:45:00,54.4,39.9,30.08,West,267,1.0,2.0,58,0.00,,,0.00,Wunderground v.1.15,2013-05-26 12:45:00,
2013-05-26 08:54:00,55.0,40.5,30.09,WNW,288,2.0,2.0,58,0.00,,,0.00,Wunderground v.1.15,2013-05-26 12:54:00,
2013-05-26 09:00:00,55.6,41.0,30.09,West,267,1.0,1.0,58,0.00,,,0.00,Wunderground v.1.15,2013-05-26 13:00:00,
2013-05-26 09:09:00,56.4,41.3,30.08,SW,217,1.0,2.0,57,0.00,,,0.00,Wunderground v.1.15,2013-05-26 13:09:00,
2013-05-26 09:19:00,56.7,40.2,30.08,SW,217,1.0,1.0,54,0.00,,,0.00,Wunderground v.1.15,2013-05-26 13:19:00,
2013-05-26 09:34:00,57.7,41.2,30.08,West,266,1.0,1.0,54,0.00,,,0.00,Wunderground v.1.15,2013-05-26 13:34:00,
2013-05-26 09:39:00,58.2,39.6,30.08,NW,324,1.0,2.0,50,0.00,,,0.00,Wunderground v.1.15,2013-05-26 13:39:00,
2013-05-26 09:45:00,59.0,39.9,30.08,NW,319,1.0,1.0,49,0.00,,,0.00,Wunderground v.1.15,2013-05-26 13:45:00,
2013-05-26 09:54:00,59.6,39.3,30.09,NNW,340,2.0,5.0,47,0.00,,,0.00,Wunderground v.1.15,2013-05-26 13:54:00,
2013-05-26 10:00:00,59.6,38.8,30.08,West,271,2.0,2.0,46,0.00,,,0.00,Wunderground v.1.15,2013-05-26 14:00:00,
2013-05-26 10:10:00,60.1,38.1,30.08,SSW,213,3.0,3.0,44,0.00,,,0.00,Wunderground v.1.15,2013-05-26 14:10:00,
2013-05-26 10:15:00,60.2,37.6,30.08,West,263,3.0,3.0,43,0.00,,,0.00,Wunderground v.1.15,2013-05-26 14:15:00,
2013-05-26 10:25:00,61.9,37.9,30.08,West,265,1.0,4.0,41,0.00,,,0.00,Wunderground v.1.15,2013-05-26 14:25:00,
2013-05-26 10:35:00,61.8,36.6,30.07,WSW,257,3.0,3.0,39,0.00,,,0.00,Wunderground v.1.15,2013-05-26 14:35:00,
2013-05-26 10:40:00,61.8,37.2,30.08,NNW,345,3.0,3.0,40,0.00,,,0.00,Wunderground v.1.15,2013-05-26 14:40:00,
2013-05-26 10:45:00,61.9,36.0,30.08,West,269,3.0,4.0,38,0.00,,,0.00,Wunderground v.1.15,2013-05-26 14:45:00,
2013-05-26 10:55:00,61.5,36.3,30.08,West,263,4.0,4.0,39,0.00,,,0.00,Wunderground v.1.15,2013-05-26 14:55:00,
2013-05-26 11:00:00,61.5,35.6,30.07,WSW,238,3.0,6.0,38,0.00,,,0.00,Wunderground v.1.15,2013-05-26 15:00:00,
2013-05-26 11:10:00,62.1,36.8,30.08,WNW,294,2.0,2.0,39,0.00,,,0.00,Wunderground v.1.15,2013-05-26 15:10:00,
2013-05-26 11:15:00,62.6,36.6,30.07,West,272,2.0,3.0,38,0.00,,,0.00,Wunderground v.1.15,2013-05-26 15:15:00,
2013-05-26 11:25:00,62.6,38.6,30.08,North,355,3.0,3.0,41,0.00,,,0.00,Wunderground v.1.15,2013-05-26 15:25:00,
2013-05-26 11:30:00,63.1,37.1,30.08,West,271,2.0,3.0,38,0.00,,,0.00,Wunderground v.1.15,2013-05-26 15:30:00,
2013-05-26 11:40:00,62.6,36.6,30.08,WNW,300,3.0,3.0,38,0.00,,,0.00,Wunderground v.1.15,2013-05-26 15:40:00,
2013-05-26 11:46:00,62.6,37.9,30.08,NNW,341,3.0,3.0,40,0.00,,,0.00,Wunderground v.1.15,2013-05-26 15:46:00,
2013-05-26 11:55:00,63.0,37.0,30.08,West,268,2.0,4.0,38,0.00,,,0.00,Wunderground v.1.15,2013-05-26 15:55:00,
2013-05-26 12:01:00,63.5,38.1,30.08,SW,232,2.0,2.0,39,0.00,,,0.00,Wunderground v.1.15,2013-05-26 16:01:00,
2013-05-26 12:10:00,64.5,38.3,30.08,West,271,2.0,2.0,38,0.00,,,0.00,Wunderground v.1.15,2013-05-26 16:10:00,
2013-05-26 12:15:00,65.0,38.8,30.08,West,263,2.0,3.0,38,0.00,,,0.00,Wunderground v.1.15,2013-05-26 16:15:00,
2013-05-26 12:25:00,64.0,37.2,30.08,WSW,249,2.0,4.0,37,0.00,,,0.00,Wunderground v.1.15,2013-05-26 16:25:00,
2013-05-26 12:30:00,64.8,37.2,30.08,WSW,247,2.0,2.0,36,0.00,,,0.00,Wunderground v.1.15,2013-05-26 16:30:00,
2013-05-26 12:40:00,65.0,38.1,30.08,NNW,344,2.0,2.0,37,0.00,,,0.00,Wunderground v.1.15,2013-05-26 16:40:00,
2013-05-26 12:45:00,65.8,38.1,30.08,North,355,3.0,3.0,36,0.00,,,0.00,Wunderground v.1.15,2013-05-26 16:45:00,
2013-05-26 12:55:00,65.9,38.9,30.08,NE,46,2.0,2.0,37,0.00,,,0.00,Wunderground v.1.15,2013-05-26 16:55:00,
2013-05-26 13:00:00,66.2,38.4,30.08,East,90,2.0,2.0,36,0.00,,,0.00,Wunderground v.1.15,2013-05-26 17:00:00,
2013-05-26 13:10:00,66.1,35.4,30.08,West,266,2.0,3.0,32,0.00,,,0.00,Wunderground v.1.15,2013-05-26 17:10:00,
2013-05-26 13:15:00,65.9,36.7,30.08,NNW,332,3.0,3.0,34,0.00,,,0.00,Wunderground v.1.15,2013-05-26 17:15:00,
2013-05-26 13:25:00,66.2,36.2,30.07,West,269,3.0,3.0,33,0.00,,,0.00,Wunderground v.1.15,2013-05-26 17:25:00,
2013-05-26 13:30:00,66.5,37.2,30.08,West,272,3.0,3.0,34,0.00,,,0.00,Wunderground v.1.15,2013-05-26 17:30:00,
2013-05-26 13:40:00,66.8,37.5,30.07,WNW,287,2.0,2.0,34,0.00,,,0.00,Wunderground v.1.15,2013-05-26 17:40:00,
2013-05-26 13:45:00,67.0,36.9,30.07,West,269,2.0,2.0,33,0.00,,,0.00,Wunderground v.1.15,2013-05-26 17:45:00,
2013-05-26 13:55:00,67.0,37.7,30.07,NNW,336,3.0,3.0,34,0.00,,,0.00,Wunderground v.1.15,2013-05-26 17:55:00,
2013-05-26 14:00:00,66.9,36.8,30.07,SW,232,3.0,5.0,33,0.00,,,0.00,Wunderground v.1.15,2013-05-26 18:00:00,
2013-05-26 14:10:00,67.4,38.0,30.07,WSW,250,1.0,5.0,34,0.00,,,0.00,Wunderground v.1.15,2013-05-26 18:10:00,
2013-05-26 14:15:00,67.8,36.8,30.07,North,5,2.0,5.0,32,0.00,,,0.00,Wunderground v.1.15,2013-05-26 18:15:00,
2013-05-26 14:25:00,67.6,35.0,30.07,WNW,286,3.0,3.0,30,0.00,,,0.00,Wunderground v.1.15,2013-05-26 18:25:00,
2013-05-26 14:30:00,67.3,36.4,30.07,West,279,3.0,3.0,32,0.00,,,0.00,Wunderground v.1.15,2013-05-26 18:30:00,
2013-05-26 14:40:00,67.1,36.2,30.07,West,271,3.0,3.0,32,0.00,,,0.00,Wunderground v.1.15,2013-05-26 18:40:00,
2013-05-26 14:45:00,66.7,36.7,30.06,NW,304,3.0,3.0,33,0.00,,,0.00,Wunderground v.1.15,2013-05-26 18:45:00,
2013-05-26 14:55:00,66.9,36.1,30.07,SW,229,2.0,5.0,32,0.00,,,0.00,Wunderground v.1.15,2013-05-26 18:55:00,
2013-05-26 15:00:00,66.9,36.1,30.06,NW,306,3.0,3.0,32,0.00,,,0.00,Wunderground v.1.15,2013-05-26 19:00:00,
2013-05-26 15:10:00,67.1,35.4,30.06,WNW,294,2.0,2.0,31,0.00,,,0.00,Wunderground v.1.15,2013-05-26 19:10:00,
2013-05-26 15:15:00,67.2,35.5,30.06,WSW,250,2.0,3.0,31,0.00,,,0.00,Wunderground v.1.15,2013-05-26 19:15:00,
2013-05-26 15:24:00,67.2,37.1,30.07,SSW,207,2.0,4.0,33,0.00,,,0.00,Wunderground v.1.15,2013-05-26 19:24:00,
2013-05-26 15:30:00,67.1,36.2,30.06,West,263,3.0,4.0,32,0.00,,,0.00,Wunderground v.1.15,2013-05-26 19:30:00,
2013-05-26 15:40:00,67.0,36.1,30.07,SW,230,3.0,3.0,32,0.00,,,0.00,Wunderground v.1.15,2013-05-26 19:40:00,
2013-05-26 15:45:00,66.9,36.1,30.06,North,360,3.0,4.0,32,0.00,,,0.00,Wunderground v.1.15,2013-05-26 19:45:00,
2013-05-26 15:55:00,67.0,35.3,30.07,NW,322,2.0,5.0,31,0.00,,,0.00,Wunderground v.1.15,2013-05-26 19:55:00,
2013-05-26 16:00:00,66.9,35.3,30.06,West,275,3.0,4.0,31,0.00,,,0.00,Wunderground v.1.15,2013-05-26 20:00:00,
2013-05-26 16:09:00,67.0,35.3,30.06,NW,304,2.0,3.0,31,0.00,,,0.00,Wunderground v.1.15,2013-05-26 20:09:00,
2013-05-26 16:15:00,67.1,35.4,30.07,West,269,2.0,4.0,31,0.00,,,0.00,Wunderground v.1.15,2013-05-26 20:15:00,
2013-05-26 16:25:00,67.0,36.1,30.06,ENE,61,3.0,4.0,32,0.00,,,0.00,Wunderground v.1.15,2013-05-26 20:25:00,
2013-05-26 16:30:00,66.9,34.4,30.07,West,269,3.0,3.0,30,0.00,,,0.00,Wunderground v.1.15,2013-05-26 20:30:00,
2013-05-26 16:40:00,66.8,35.2,30.07,North,360,2.0,3.0,31,0.00,,,0.00,Wunderground v.1.15,2013-05-26 20:40:00,
2013-05-26 16:45:00,66.6,35.8,30.07,WNW,282,3.0,3.0,32,0.00,,,0.00,Wunderground v.1.15,2013-05-26 20:45:00,
2013-05-26 16:55:00,66.6,35.0,30.07,SW,225,3.0,3.0,31,0.00,,,0.00,Wunderground v.1.15,2013-05-26 20:55:00,
2013-05-26 17:00:00,66.6,34.2,30.07,North,5,3.0,3.0,30,0.00,,,0.00,Wunderground v.1.15,2013-05-26 21:00:00,
2013-05-26 17:10:00,66.8,34.3,30.07,NNW,330,2.0,2.0,30,0.00,,,0.00,Wunderground v.1.15,2013-05-26 21:10:00,
2013-05-26 17:15:00,66.8,34.3,30.07,WSW,248,2.0,2.0,30,0.00,,,0.00,Wunderground v.1.15,2013-05-26 21:15:00,
2013-05-26 17:24:00,66.5,34.1,30.07,North,355,2.0,3.0,30,0.00,,,0.00,Wunderground v.1.15,2013-05-26 21:24:00,
2013-05-26 17:30:00,66.3,35.5,30.07,WNW,288,3.0,4.0,32,0.00,,,0.00,Wunderground v.1.15,2013-05-26 21:30:00,
2013-05-26 17:40:00,66.4,34.8,30.08,East,99,3.0,3.0,31,0.00,,,0.00,Wunderground v.1.15,2013-05-26 21:40:00,
2013-05-26 17:45:00,66.5,34.9,30.08,WNW,288,2.0,3.0,31,0.00,,,0.00,Wunderground v.1.15,2013-05-26 21:45:00,
2013-05-26 17:55:00,66.9,34.4,30.08,WSW,250,2.0,2.0,30,0.00,,,0.00,Wunderground v.1.15,2013-05-26 21:55:00,
2013-05-26 18:00:00,66.6,34.2,30.08,SSW,207,2.0,2.0,30,0.00,,,0.00,Wunderground v.1.15,2013-05-26 22:00:00,
2013-05-26 18:10:00,66.2,33.8,30.09,SW,219,3.0,3.0,30,0.00,,,0.00,Wunderground v.1.15,2013-05-26 22:10:00,
2013-05-26 18:15:00,66.1,34.6,30.09,SW,228,2.0,3.0,31,0.00,,,0.00,Wunderground v.1.15,2013-05-26 22:15:00,
2013-05-26 18:24:00,65.8,35.1,30.09,SSE,147,2.0,2.0,32,0.00,,,0.00,Wunderground v.1.15,2013-05-26 22:24:00,
2013-05-26 18:30:00,65.7,35.0,30.09,SSW,213,1.0,2.0,32,0.00,,,0.00,Wunderground v.1.15,2013-05-26 22:30:00,
2013-05-26 18:39:00,65.4,36.3,30.10,SSW,192,2.0,4.0,34,0.00,,,0.00,Wunderground v.1.15,2013-05-26 22:39:00,
2013-05-26 18:45:00,65.1,35.3,30.10,North,5,2.0,4.0,33,0.00,,,0.00,Wunderground v.1.15,2013-05-26 22:45:00,
2013-05-26 18:54:00,64.7,34.1,30.10,SSW,209,1.0,1.0,32,0.00,,,0.00,Wunderground v.1.15,2013-05-26 22:54:00,
2013-05-26 19:00:00,64.5,34.0,30.11,NE,50,1.0,1.0,32,0.00,,,0.00,Wunderground v.1.15,2013-05-26 23:00:00,
2013-05-26 19:09:00,64.2,34.5,30.11,ESE,109,1.0,1.0,33,0.00,,,0.00,Wunderground v.1.15,2013-05-26 23:09:00,
2013-05-26 19:15:00,64.1,33.6,30.11,WSW,249,0.0,1.0,32,0.00,,,0.00,Wunderground v.1.15,2013-05-26 23:15:00,
2013-05-26 19:24:00,63.9,35.0,30.12,SSW,194,0.0,1.0,34,0.00,,,0.00,Wunderground v.1.15,2013-05-26 23:24:00,
2013-05-26 19:30:00,63.7,35.5,30.12,SSW,208,0.0,2.0,35,0.00,,,0.00,Wunderground v.1.15,2013-05-26 23:30:00,
2013-05-26 19:39:00,63.1,34.3,30.12,NE,38,1.0,1.0,34,0.00,,,0.00,Wunderground v.1.15,2013-05-26 23:39:00,
2013-05-26 19:45:00,62.9,34.8,30.13,ENE,57,1.0,1.0,35,0.00,,,0.00,Wunderground v.1.15,2013-05-26 23:45:00,
2013-05-26 19:54:00,62.4,35.8,30.13,East,90,0.0,0.0,37,0.00,,,0.00,Wunderground v.1.15,2013-05-26 23:54:00,
2013-05-26 20:00:00,62.0,34.7,30.13,ENE,59,1.0,1.0,36,0.00,,,0.00,Wunderground v.1.15,2013-05-27 00:00:00,
2013-05-26 20:09:00,61.5,34.3,30.14,NE,47,1.0,1.0,36,0.00,,,0.00,Wunderground v.1.15,2013-05-27 00:09:00,
2013-05-26 20:15:00,61.2,35.4,30.14,NE,47,0.0,1.0,38,0.00,,,0.00,Wunderground v.1.15,2013-05-27 00:15:00,
2013-05-26 20:24:00,60.6,35.5,30.14,NNW,343,0.0,0.0,39,0.00,,,0.00,Wunderground v.1.15,2013-05-27 00:24:00,
2013-05-26 20:30:00,60.2,33.1,30.15,NNW,338,0.0,0.0,36,0.00,,,0.00,Wunderground v.1.15,2013-05-27 00:30:00,
2013-05-26 20:39:00,59.9,33.5,30.15,East,100,0.0,0.0,37,0.00,,,0.00,Wunderground v.1.15,2013-05-27 00:39:00,
2013-05-26 20:45:00,59.6,33.9,30.15,ESE,109,0.0,0.0,38,0.00,,,0.00,Wunderground v.1.15,2013-05-27 00:45:00,
2013-05-26 20:54:00,59.0,32.7,30.16,ESE,109,0.0,0.0,37,0.00,,,0.00,Wunderground v.1.15,2013-05-27 00:54:00,
2013-05-26 21:00:00,58.7,33.1,30.16,ESE,109,0.0,0.0,38,0.00,,,0.00,Wunderground v.1.15,2013-05-27 01:00:00,
2013-05-26 21:09:00,58.1,35.7,30.17,ESE,109,0.0,0.0,43,0.00,,,0.00,Wunderground v.1.15,2013-05-27 01:09:00,
2013-05-26 21:15:00,57.5,35.7,30.17,ESE,109,0.0,0.0,44,0.00,,,0.00,Wunderground v.1.15,2013-05-27 01:15:00,
2013-05-26 21:24:00,56.0,37.1,30.18,ESE,109,0.0,0.0,49,0.00,,,0.00,Wunderground v.1.15,2013-05-27 01:24:00,
2013-05-26 21:30:00,55.1,37.8,30.18,ESE,109,0.0,0.0,52,0.00,,,0.00,Wunderground v.1.15,2013-05-27 01:30:00,
2013-05-26 21:39:00,53.9,37.6,30.18,ESE,109,0.0,0.0,54,0.00,,,0.00,Wunderground v.1.15,2013-05-27 01:39:00,
2013-05-26 21:49:00,52.7,38.3,30.19,ESE,109,0.0,0.0,58,0.00,,,0.00,Wunderground v.1.15,2013-05-27 01:49:00,
2013-05-26 21:55:00,52.3,38.0,30.19,ESE,109,0.0,0.0,58,0.00,,,0.00,Wunderground v.1.15,2013-05-27 01:55:00,
2013-05-26 22:00:00,51.8,37.9,30.19,ESE,109,0.0,0.0,59,0.00,,,0.00,Wunderground v.1.15,2013-05-27 02:00:00,
2013-05-26 22:09:00,51.0,38.0,30.20,ESE,109,0.0,0.0,61,0.00,,,0.00,Wunderground v.1.15,2013-05-27 02:09:00,
2013-05-26 22:15:00,50.6,39.3,30.20,ESE,109,0.0,0.0,65,0.00,,,0.00,Wunderground v.1.15,2013-05-27 02:15:00,
2013-05-26 22:24:00,50.0,38.7,30.20,ESE,109,0.0,0.0,65,0.00,,,0.00,Wunderground v.1.15,2013-05-27 02:24:00,
2013-05-26 22:30:00,49.6,39.1,30.21,ESE,109,0.0,0.0,67,0.00,,,0.00,Wunderground v.1.15,2013-05-27 02:30:00,
2013-05-26 22:39:00,49.0,39.3,30.21,ESE,109,0.0,0.0,69,0.00,,,0.00,Wunderground v.1.15,2013-05-27 02:39:00,
2013-05-26 22:45:00,48.7,39.4,30.21,ESE,109,0.0,0.0,70,0.00,,,0.00,Wunderground v.1.15,2013-05-27 02:45:00,
2013-05-26 22:54:00,48.4,39.8,30.21,ESE,109,0.0,0.0,72,0.00,,,0.00,Wunderground v.1.15,2013-05-27 02:54:00,
2013-05-26 23:00:00,48.1,39.9,30.21,ESE,109,0.0,0.0,73,0.00,,,0.00,Wunderground v.1.15,2013-05-27 03:00:00,
2013-05-26 23:09:00,47.6,39.7,30.21,ESE,109,0.0,0.0,74,0.00,,,0.00,Wunderground v.1.15,2013-05-27 03:09:00,
2013-05-26 23:15:00,47.3,39.8,30.21,East,80,0.0,0.0,75,0.00,,,0.00,Wunderground v.1.15,2013-05-27 03:15:00,
2013-05-26 23:24:00,46.7,39.9,30.21,East,80,0.0,0.0,77,0.00,,,0.00,Wunderground v.1.15,2013-05-27 03:24:00,
2013-05-26 23:30:00,46.6,40.1,30.22,East,80,0.0,0.0,78,0.00,,,0.00,Wunderground v.1.15,2013-05-27 03:30:00,
2013-05-26 23:39:00,46.3,40.5,30.22,East,80,0.0,0.0,80,0.00,,,0.00,Wunderground v.1.15,2013-05-27 03:39:00,
2013-05-26 23:45:00,46.2,41.0,30.22,East,80,0.0,0.0,82,0.00,,,0.00,Wunderground v.1.15,2013-05-27 03:45:00,
2013-05-26 23:54:00,46.1,40.6,30.23,East,80,0.0,0.0,81,0.00,,,0.00,Wunderground v.1.15,2013-05-27 03:54:00,